OPS 4988 DEB, 12099

Orbit data source: Space-Track

OPS 4988 DEB, 12099 is space debris in LEO originally from a launch on Tue, 09 Mar 1965 UTC launched from the Air Force Western Test Range (AFWTR). Debris objects in space refer to the collection of defunct objects orbiting the Earth. Examples of debris include non-operational satellites, rocket bodies, and fragments generated from explosions, collisions, or faulty payload assembly.

Loading next visibility...
Identifier
12099, 1965-016K
Orbit
LEO
Country
Flag of USUS
Related business
Manufacturer
Unknown
Mission
Spacecraft
Bus & Motor
Unknown
Mass
Unknown
Launch date (UTC)
1965-03-09 (60 years ago)
Launch vehicle
Unknown
Launch site
Air Force Western Test Range (AFWTR)
Object type
Payload
Rocket body
Debris
Shape & HBR
Unknown
Radar Cross Section
Small (<0.1 m²)

Expand to show TLE details & history
Last TLE update: 8 hours ago

TLE from 8 hours ago
0 OPS 4988 DEB
1 12099U 65016K   25242.85237051  .00000553  00000-0  37815-3 0  9995
2 12099  70.0760 143.6403 0020952 291.7011 135.1684 14.04644015 86251
Epoch: 2025-08-30T20:27Z
TLE epoch observation values (Epoch: 2025-08-30T20:27:24.812Z)
Latitude
60.06746°
Longitude
-103.72183°
Altitude
898.172 km
Speed
7.403 km/s
True Right ascension
12h 09m 38s
True Declination
59° 55' 17"
Sunlit
Object was in daylight at epoch
Visualization orbit readout
Latitude
Unknown
Longitude
Unknown
Altitude
Unknown
Speed
Unknown
Apparent Right ascension
Unknown
Apparent Declination
Unknown
Sunlit
N/A
Visualization observer readout
Local Sidereal Time
20:23:32
Azimuth
Unknown
Elevation
Unknown
Doppler factor
Unknown
Orbital elements
Apogee altitude
890.984 km
Perigee altitude
860.587 km
Semi-major axis
7,253.922 km
Eccentricity
0.0021
Inclination
70.076°
RAAN
143.6403°
Arg. of periapsis
291.7011°
True anomaly
135.33736°
Mean anomaly
135.1684°
Eccentric anomaly
135.25291°
Mean motion
3.51305 °/min
Orbital period
102.48 mins
BSTAR
0.00037815
Loading maneuver chart data...
Computing Atmospheric mass density...
Loading historical data...
Loading historical data...
Loading historical data...
Loading historical data...
Loading historical data...
Loading historical data...
Loading historical data...

Documentation

Showing up to 5 results
|